Location: Peebles
(55.6412°N, 3.1714°W)
Time: 12:06:56
(UTC+00:00)

CUTE-I - Pass Details

Date: 17 December 2023
Orbit: 807 x 823 km, 98.7° (Epoch: 24 February)

Event Time Altitude Azimuth Distance (km) Brightness Sun altitude
Rises 05:46:13 0° 21° (NNE) 3,371 ? -22.2°
Reaches altitude 10° 05:48:52 10° 32° (NNE) 2,435 ? -21.8°
Maximum altitude 05:53:35 30° 93° (E) 1,443 ? -21.2°
Drops below altitude 10° 05:58:16 10° 154° (SSE) 2,421 ? -20.5°
Sets 06:00:54 0° 165° (SSE) 3,348 ? -20.1°
